• In United Kingdom
  • List of Countries
  • For 7 days
  • Water Temperature
  • Satellite Maps
  • Weather Map
  • Weather Widgets
  • user-avatar
    Login

    Hourly Weather Ghanzi

    Today, 15 November, Thursday

    Time Temperature Precipitation Wind Pressure Humidity
    00:00 +17°C° 0 mm 6 mps 717 mmHg 45%
    01:00 +16°C° 0 mm 6 mps 717 mmHg 46%
    02:00 +16°C° 0 mm 5 mps 717 mmHg 47%
    03:00 +15°C° 0 mm 5 mps 717 mmHg 48%
    04:00 +14°C° 0 mm 5 mps 717 mmHg 49%
    05:00 +14°C° 0 mm 5 mps 717 mmHg 49%
    06:00 +14°C° 0 mm 5 mps 718 mmHg 50%
    07:00 +14°C° 0 mm 6 mps 718 mmHg 51%
    08:00 +16°C° 0 mm 6 mps 718 mmHg 45%
    09:00 +19°C° 0 mm 5 mps 719 mmHg 39%
    10:00 +20°C° 0 mm 5 mps 719 mmHg 33%
    11:00 +21°C° 0 mm 5 mps 719 mmHg 29%
    12:00 +22°C° 0 mm 5 mps 718 mmHg 26%
    13:00 +23°C° 0 mm 5 mps 717 mmHg 22%
    14:00 +23°C° 0 mm 5 mps 717 mmHg 22%
    15:00 +23°C° 0 mm 5 mps 717 mmHg 21%
    16:00 +23°C° 0 mm 5 mps 717 mmHg 21%
    17:00 +22°C° 0 mm 4 mps 717 mmHg 23%
    18:00 +20°C° 0 mm 4 mps 717 mmHg 26%
    19:00 +19°C° 0 mm 4 mps 718 mmHg 28%
    20:00 +18°C° 0 mm 4 mps 718 mmHg 30%
    21:00 +18°C° 0 mm 3 mps 718 mmHg 33%
    22:00 +17°C° 0 mm 3 mps 718 mmHg 35%
    23:00 +17°C° 0 mm 3 mps 718 mmHg 38%

    Tomorrow, 16 November, Friday

    Time Temperature Precipitation Wind Pressure Humidity
    00:00 +17°C° 0 mm 3 mps 718 mmHg 40%
    01:00 +15°C° 0 mm 4 mps 718 mmHg 43%
    02:00 +15°C° 0 mm 4 mps 718 mmHg 46%
    03:00 +14°C° 0 mm 4 mps 717 mmHg 49%
    04:00 +14°C° 0 mm 4 mps 717 mmHg 52%
    05:00 +14°C° 0 mm 4 mps 718 mmHg 53%
    06:00 +14°C° 0 mm 4 mps 718 mmHg 53%
    07:00 +14°C° 0 mm 3 mps 718 mmHg 53%
    08:00 +17°C° 0 mm 4 mps 719 mmHg 48%
    09:00 +19°C° 0 mm 4 mps 719 mmHg 42%
    10:00 +22°C° 0 mm 4 mps 720 mmHg 36%
    11:00 +24°C° 0 mm 3 mps 719 mmHg 32%
    12:00 +24°C° 0 mm 3 mps 718 mmHg 27%
    13:00 +25°C° 0 mm 3 mps 718 mmHg 23%
    14:00 +25°C° 0 mm 2 mps 717 mmHg 22%
    15:00 +25°C° 0 mm 2 mps 717 mmHg 21%
    16:00 +26°C° 0 mm 2 mps 717 mmHg 20%
    17:00 +24°C° 0 mm 2 mps 717 mmHg 22%
    18:00 +23°C° 0 mm 2 mps 717 mmHg 24%
    19:00 +20°C° 0 mm 2 mps 718 mmHg 26%
    20:00 +20°C° 0 mm 3 mps 718 mmHg 28%
    21:00 +19°C° 0 mm 3 mps 718 mmHg 29%
    22:00 +19°C° 0 mm 3 mps 718 mmHg 31%
    23:00 +18°C° 0 mm 3 mps 718 mmHg 33%

    Day after tomorrow, 17 November, Saturday

    Time Temperature Precipitation Wind Pressure Humidity
    00:00 +18°C° 0 mm 3 mps 717 mmHg 35%
    01:00 +17°C° 0 mm 3 mps 717 mmHg 37%
    02:00 +17°C° 0 mm 3 mps 717 mmHg 39%
    03:00 +17°C° 0 mm 3 mps 717 mmHg 41%
    04:00 +16°C° 0 mm 3 mps 717 mmHg 42%
    05:00 +17°C° 0 mm 3 mps 717 mmHg 42%
    06:00 +17°C° 0 mm 3 mps 717 mmHg 41%
    07:00 +17°C° 0 mm 3 mps 718 mmHg 41%
    08:00 +19°C° 0 mm 4 mps 718 mmHg 36%
    09:00 +21°C° 0 mm 4 mps 718 mmHg 31%
    10:00 +25°C° 0 mm 5 mps 719 mmHg 26%
    11:00 +25°C° 0 mm 4 mps 718 mmHg 23%
    12:00 +26°C° 0 mm 4 mps 717 mmHg 21%
    13:00 +27°C° 0 mm 4 mps 717 mmHg 19%
    14:00 +27°C° 0 mm 3 mps 716 mmHg 18%
    15:00 +27°C° 0 mm 3 mps 716 mmHg 18%
    16:00 +27°C° 0 mm 2 mps 716 mmHg 17%
    17:00 +25°C° 0 mm 3 mps 716 mmHg 19%
    18:00 +24°C° 0 mm 3 mps 716 mmHg 21%
    19:00 +21°C° 0 mm 3 mps 716 mmHg 22%
    20:00 +21°C° 0 mm 3 mps 716 mmHg 23%
    21:00 +20°C° 0 mm 3 mps 716 mmHg 24%
    22:00 +19°C° 0 mm 3 mps 717 mmHg 24%
    23:00 +19°C° 0 mm 3 mps 716 mmHg 25%

    18 November, Sunday

    Time Temperature Precipitation Wind Pressure Humidity
    00:00 +18°C° 0 mm 3 mps 716 mmHg 26%
    01:00 +18°C° 0 mm 3 mps 716 mmHg 27%
    02:00 +18°C° 0 mm 3 mps 716 mmHg 28%
    03:00 +17°C° 0 mm 3 mps 715 mmHg 29%
    04:00 +17°C° 0 mm 3 mps 715 mmHg 30%
    05:00 +17°C° 0 mm 3 mps 716 mmHg 30%
    06:00 +18°C° 0 mm 3 mps 716 mmHg 30%
    07:00 +18°C° 0 mm 3 mps 717 mmHg 29%
    08:00 +20°C° 0 mm 3 mps 717 mmHg 26%
    09:00 +22°C° 0 mm 3 mps 718 mmHg 23%
    10:00 +25°C° 0 mm 4 mps 718 mmHg 20%
    11:00 +26°C° 0 mm 3 mps 717 mmHg 19%
    12:00 +27°C° 0 mm 2 mps 717 mmHg 17%
    13:00 +28°C° 0 mm 1 mps 716 mmHg 16%
    14:00 +28°C° 0 mm 1 mps 716 mmHg 15%
    15:00 +28°C° 0 mm 1 mps 716 mmHg 15%
    16:00 +28°C° 0 mm 1 mps 715 mmHg 15%
    17:00 +26°C° 0 mm 1 mps 715 mmHg 17%
    18:00 +24°C° 0 mm 2 mps 716 mmHg 19%
    19:00 +23°C° 0 mm 2 mps 716 mmHg 20%
    20:00 +21°C° 0 mm 2 mps 716 mmHg 21%
    21:00 +21°C° 0 mm 2 mps 716 mmHg 22%
    22:00 +20°C° 0 mm 2 mps 716 mmHg 22%
    23:00 +20°C° 0 mm 2 mps 716 mmHg 23%

    19 November, Monday

    Time Temperature Precipitation Wind Pressure Humidity
    00:00 +19°C° 0 mm 2 mps 715 mmHg 24%
    01:00 +18°C° 0 mm 2 mps 715 mmHg 25%
    02:00 +18°C° 0 mm 2 mps 715 mmHg 26%
    03:00 +17°C° 0 mm 2 mps 715 mmHg 27%
    04:00 +17°C° 0 mm 2 mps 715 mmHg 27%
    05:00 +18°C° 0 mm 2 mps 715 mmHg 26%
    06:00 +19°C° 0 mm 1 mps 716 mmHg 25%
    07:00 +20°C° 0 mm 1 mps 716 mmHg 24%
    08:00 +22°C° 0 mm 1 mps 717 mmHg 21%
    09:00 +24°C° 0 mm 1 mps 717 mmHg 18%
    10:00 +26°C° 0 mm 1 mps 718 mmHg 15%
    11:00 +28°C° 0 mm 1 mps 717 mmHg 14%
    12:00 +29°C° 0 mm 1 mps 716 mmHg 12%
    13:00 +30°C° 0 mm 2 mps 716 mmHg 11%
    14:00 +30°C° 0 mm 2 mps 715 mmHg 11%
    15:00 +30°C° 0 mm 2 mps 715 mmHg 11%
    16:00 +30°C° 0 mm 2 mps 715 mmHg 11%
    17:00 +28°C° 0 mm 2 mps 716 mmHg 12%
    18:00 +26°C° 0 mm 2 mps 716 mmHg 14%
    19:00 +24°C° 0 mm 2 mps 716 mmHg 15%
    20:00 +24°C° 0 mm 2 mps 716 mmHg 15%
    21:00 +24°C° 0 mm 2 mps 716 mmHg 16%
    22:00 +23°C° 0 mm 2 mps 716 mmHg 16%
    23:00 +23°C° 0 mm 2 mps 716 mmHg 17%

    20 November, Tuesday

    Time Temperature Precipitation Wind Pressure Humidity
    00:00 +21°C° 0 mm 2 mps 716 mmHg 17%
    01:00 +21°C° 0 mm 2 mps 716 mmHg 17%
    02:00 +20°C° 0 mm 2 mps 716 mmHg 18%
    03:00 +20°C° 0 mm 2 mps 716 mmHg 18%
    04:00 +20°C° 0 mm 2 mps 716 mmHg 19%
    05:00 +20°C° 0 mm 2 mps 716 mmHg 18%
    06:00 +21°C° 0 mm 2 mps 717 mmHg 18%
    07:00 +21°C° 0 mm 2 mps 717 mmHg 17%
    08:00 +24°C° 0 mm 2 mps 717 mmHg 15%
    09:00 +26°C° 0 mm 2 mps 718 mmHg 13%
    10:00 +28°C° 0 mm 2 mps 718 mmHg 11%
    11:00 +29°C° 0 mm 2 mps 717 mmHg 10%
    12:00 +30°C° 0 mm 2 mps 717 mmHg 10%
    13:00 +31°C° 0 mm 2 mps 716 mmHg 9%
    14:00 +31°C° 0 mm 2 mps 716 mmHg 9%
    15:00 +31°C° 0 mm 2 mps 716 mmHg 9%
    16:00 +30°C° 0 mm 2 mps 716 mmHg 9%
    17:00 +29°C° 0 mm 2 mps 716 mmHg 11%
    18:00 +27°C° 0 mm 3 mps 716 mmHg 12%
    19:00 +26°C° 0 mm 3 mps 717 mmHg 13%
    20:00 +25°C° 0 mm 3 mps 717 mmHg 13%
    21:00 +25°C° 0 mm 3 mps 717 mmHg 14%
    22:00 +24°C° 0 mm 3 mps 717 mmHg 14%
    23:00 +24°C° 0 mm 3 mps 716 mmHg 15%
    Show more